Time,TemperatureF,DewpointF,PressureIn,WindDirection,WindDirectionDegrees,WindSpeedMPH,WindSpeedGustMPH,Humidity,HourlyPrecipIn,Conditions,Clouds,dailyrainin,SoftwareType,DateUTC
2013-02-03 00:03:00,10.2,5.0,30.06,North,360,0.0,-999.0,80,-99.99,,,0.00,weatherlink.com 1.10,2013-02-03 05:03:00,
2013-02-03 00:18:00,9.5,5.0,30.05,North,360,0.0,-999.0,81,-99.99,,,0.00,weatherlink.com 1.10,2013-02-03 05:18:00,
2013-02-03 00:33:00,8.8,4.0,30.05,North,360,0.0,-999.0,81,-99.99,,,0.00,weatherlink.com 1.10,2013-02-03 05:33:00,
2013-02-03 00:48:00,8.1,4.0,30.05,North,360,0.0,-999.0,82,-99.99,,,0.00,weatherlink.com 1.10,2013-02-03 05:48:00,
2013-02-03 01:04:00,7.5,3.0,30.05,North,360,0.0,-999.0,82,-99.99,,,0.00,weatherlink.com 1.10,2013-02-03 06:04:00,
2013-02-03 01:18:00,7.1,3.0,30.05,North,360,0.0,-999.0,83,-99.99,,,0.00,weatherlink.com 1.10,2013-02-03 06:18:00,
2013-02-03 01:33:00,7.1,3.0,30.04,North,360,0.0,-999.0,83,-99.99,,,0.00,weatherlink.com 1.10,2013-02-03 06:33:00,
2013-02-03 01:48:00,7.1,3.0,30.04,North,360,0.0,-999.0,84,-99.99,,,0.00,weatherlink.com 1.10,2013-02-03 06:48:00,
2013-02-03 02:03:00,7.6,4.0,30.04,North,360,0.0,-999.0,84,-99.99,,,0.00,weatherlink.com 1.10,2013-02-03 07:03:00,
2013-02-03 02:19:00,8.0,4.0,30.03,North,360,0.0,-999.0,84,-99.99,,,0.00,weatherlink.com 1.10,2013-02-03 07:19:00,
2013-02-03 02:34:00,8.4,5.0,30.03,North,360,0.0,-999.0,84,-99.99,,,0.00,weatherlink.com 1.10,2013-02-03 07:34:00,
2013-02-03 02:49:00,8.7,5.0,30.03,North,360,0.0,-999.0,85,-99.99,,,0.00,weatherlink.com 1.10,2013-02-03 07:49:00,
2013-02-03 03:04:00,8.9,5.0,30.02,North,360,0.0,-999.0,84,-99.99,,,0.00,weatherlink.com 1.10,2013-02-03 08:04:00,
2013-02-03 03:19:00,8.7,5.0,30.02,North,360,0.0,-999.0,84,-99.99,,,0.00,weatherlink.com 1.10,2013-02-03 08:19:00,
2013-02-03 03:34:00,8.8,5.0,30.02,North,360,0.0,-999.0,84,-99.99,,,0.00,weatherlink.com 1.10,2013-02-03 08:34:00,
2013-02-03 03:49:00,9.1,6.0,30.01,North,360,0.0,-999.0,85,-99.99,,,0.00,weatherlink.com 1.10,2013-02-03 08:49:00,
2013-02-03 04:03:00,9.4,6.0,29.99,North,360,0.0,-999.0,84,-99.99,,,0.00,weatherlink.com 1.10,2013-02-03 09:03:00,
2013-02-03 04:19:00,9.2,5.0,29.98,North,360,0.0,-999.0,84,-99.99,,,0.00,weatherlink.com 1.10,2013-02-03 09:19:00,
2013-02-03 04:34:00,8.9,5.0,29.98,North,360,0.0,-999.0,84,-99.99,,,0.00,weatherlink.com 1.10,2013-02-03 09:34:00,
2013-02-03 04:49:00,8.5,5.0,29.99,North,360,0.0,-999.0,84,-99.99,,,0.00,weatherlink.com 1.10,2013-02-03 09:49:00,
2013-02-03 05:04:00,8.1,4.0,29.99,North,360,0.0,-999.0,84,-99.99,,,0.00,weatherlink.com 1.10,2013-02-03 10:04:00,
2013-02-03 05:19:00,7.6,4.0,29.98,North,360,0.0,-999.0,84,-99.99,,,0.00,weatherlink.com 1.10,2013-02-03 10:19:00,
2013-02-03 05:33:00,6.6,3.0,29.98,North,360,0.0,-999.0,83,-99.99,,,0.00,weatherlink.com 1.10,2013-02-03 10:33:00,
2013-02-03 05:49:00,5.9,2.0,29.98,North,360,0.0,-999.0,83,-99.99,,,0.00,weatherlink.com 1.10,2013-02-03 10:49:00,
2013-02-03 06:04:00,5.7,2.0,29.98,North,360,0.0,-999.0,84,-99.99,,,0.00,weatherlink.com 1.10,2013-02-03 11:04:00,
2013-02-03 06:19:00,5.4,2.0,29.98,North,360,0.0,-999.0,84,-99.99,,,0.00,weatherlink.com 1.10,2013-02-03 11:19:00,
2013-02-03 06:34:00,5.3,2.0,29.97,North,360,0.0,-999.0,84,-99.99,,,0.00,weatherlink.com 1.10,2013-02-03 11:34:00,
2013-02-03 06:49:00,5.8,2.0,29.97,North,360,0.0,-999.0,85,-99.99,,,0.00,weatherlink.com 1.10,2013-02-03 11:49:00,
2013-02-03 07:04:00,6.2,3.0,29.97,North,360,0.0,-999.0,85,-99.99,,,0.00,weatherlink.com 1.10,2013-02-03 12:04:00,
2013-02-03 07:19:00,6.5,3.0,29.97,North,360,0.0,-999.0,84,-99.99,,,0.00,weatherlink.com 1.10,2013-02-03 12:19:00,
2013-02-03 07:34:00,6.8,3.0,29.97,North,360,0.0,-999.0,84,-99.99,,,0.00,weatherlink.com 1.10,2013-02-03 12:34:00,
2013-02-03 07:49:00,7.6,4.0,29.98,North,355,0.0,-999.0,84,-99.99,,,0.00,weatherlink.com 1.10,2013-02-03 12:49:00,
2013-02-03 08:04:00,8.2,4.0,29.97,North,355,0.0,-999.0,84,-99.99,,,0.00,weatherlink.com 1.10,2013-02-03 13:04:00,
2013-02-03 08:19:00,8.7,5.0,29.97,North,355,0.0,-999.0,83,-99.99,,,0.00,weatherlink.com 1.10,2013-02-03 13:19:00,
2013-02-03 08:34:00,9.2,5.0,29.97,North,355,0.0,-999.0,83,-99.99,,,0.00,weatherlink.com 1.10,2013-02-03 13:34:00,
2013-02-03 08:49:00,9.7,6.0,29.96,North,355,0.0,-999.0,83,-99.99,,,0.00,weatherlink.com 1.10,2013-02-03 13:49:00,
2013-02-03 09:04:00,10.3,6.0,29.97,WNW,302,0.0,-999.0,82,-99.99,,,0.00,weatherlink.com 1.10,2013-02-03 14:04:00,
2013-02-03 09:19:00,11.2,6.0,29.97,WNW,285,0.0,-999.0,81,-99.99,,,0.00,weatherlink.com 1.10,2013-02-03 14:19:00,
2013-02-03 09:33:00,12.0,7.0,29.97,WNW,289,0.0,-999.0,80,-99.99,,,0.00,weatherlink.com 1.10,2013-02-03 14:33:00,
2013-02-03 09:49:00,12.8,7.0,29.97,West,273,1.0,-999.0,79,-99.99,,,0.00,weatherlink.com 1.10,2013-02-03 14:49:00,
2013-02-03 10:04:00,13.6,8.0,29.97,WSW,247,2.0,-999.0,77,-99.99,,,0.00,weatherlink.com 1.10,2013-02-03 15:04:00,
2013-02-03 10:19:00,14.5,8.0,29.96,WSW,248,2.0,-999.0,75,-99.99,,,0.00,weatherlink.com 1.10,2013-02-03 15:19:00,
2013-02-03 10:34:00,15.0,8.0,29.96,West,260,9.0,-999.0,74,-99.99,,,0.00,weatherlink.com 1.10,2013-02-03 15:34:00,
2013-02-03 10:49:00,15.0,8.0,29.96,SW,233,5.0,-999.0,74,-99.99,,,0.00,weatherlink.com 1.10,2013-02-03 15:49:00,
2013-02-03 11:04:00,15.4,9.0,29.95,WNW,282,6.0,-999.0,75,-99.99,,,0.00,weatherlink.com 1.10,2013-02-03 16:04:00,
2013-02-03 11:19:00,16.3,10.0,29.95,WSW,238,2.0,-999.0,75,-99.99,,,0.00,weatherlink.com 1.10,2013-02-03 16:19:00,
2013-02-03 11:34:00,16.6,10.0,29.95,WSW,246,7.0,-999.0,74,-99.99,,,0.00,weatherlink.com 1.10,2013-02-03 16:34:00,
2013-02-03 11:49:00,17.2,10.0,29.94,West,277,4.0,-999.0,74,-99.99,,,0.00,weatherlink.com 1.10,2013-02-03 16:49:00,
2013-02-03 12:04:00,17.9,11.0,29.93,WSW,252,4.0,-999.0,75,-99.99,,,0.00,weatherlink.com 1.10,2013-02-03 17:04:00,
2013-02-03 12:19:00,18.4,12.0,29.93,WSW,258,0.0,-999.0,75,-99.99,,,0.00,weatherlink.com 1.10,2013-02-03 17:19:00,
2013-02-03 12:34:00,19.2,13.0,29.92,West,278,4.0,-999.0,75,-99.99,,,0.00,weatherlink.com 1.10,2013-02-03 17:34:00,
2013-02-03 12:49:00,19.2,13.0,29.92,NW,305,6.0,-999.0,75,-99.99,,,0.00,weatherlink.com 1.10,2013-02-03 17:49:00,
2013-02-03 13:04:00,19.6,13.0,29.92,SSW,202,10.0,-999.0,76,-99.99,,,0.00,weatherlink.com 1.10,2013-02-03 18:04:00,
2013-02-03 13:19:00,20.0,14.0,29.91,SW,234,4.0,-999.0,76,-99.99,,,0.00,weatherlink.com 1.10,2013-02-03 18:19:00,
2013-02-03 13:33:00,20.3,14.0,29.91,West,271,6.0,-999.0,76,-99.99,,,0.00,weatherlink.com 1.10,2013-02-03 18:33:00,
2013-02-03 13:49:00,20.8,15.0,29.90,West,263,5.0,-999.0,77,-99.99,,,0.00,weatherlink.com 1.10,2013-02-03 18:49:00,
2013-02-03 14:04:00,20.8,14.0,29.90,West,266,8.0,-999.0,76,-99.99,,,0.00,weatherlink.com 1.10,2013-02-03 19:04:00,
2013-02-03 14:19:00,21.1,15.0,29.90,West,265,5.0,-999.0,77,-99.99,,,0.00,weatherlink.com 1.10,2013-02-03 19:19:00,
2013-02-03 14:34:00,21.1,15.0,29.90,WSW,257,4.0,-999.0,78,-99.99,,,0.00,weatherlink.com 1.10,2013-02-03 19:34:00,
2013-02-03 14:49:00,21.1,16.0,29.90,WSW,258,2.0,-999.0,80,-99.99,,,0.00,weatherlink.com 1.10,2013-02-03 19:49:00,
2013-02-03 15:04:00,21.3,16.0,29.90,SW,229,6.0,-999.0,80,-99.99,,,0.00,weatherlink.com 1.10,2013-02-03 20:04:00,
2013-02-03 15:19:00,21.6,16.0,29.91,NW,311,6.0,-999.0,79,-99.99,,,0.00,weatherlink.com 1.10,2013-02-03 20:19:00,
2013-02-03 15:34:00,21.9,16.0,29.91,West,261,7.0,-999.0,79,-99.99,,,0.00,weatherlink.com 1.10,2013-02-03 20:34:00,
2013-02-03 15:49:00,22.0,16.0,29.92,WSW,252,6.0,-999.0,77,-99.99,,,0.00,weatherlink.com 1.10,2013-02-03 20:49:00,
2013-02-03 16:04:00,22.0,16.0,29.92,West,266,2.0,-999.0,78,-99.99,,,0.00,weatherlink.com 1.10,2013-02-03 21:04:00,
2013-02-03 16:19:00,21.8,16.0,29.92,West,262,13.0,-999.0,78,-99.99,,,0.00,weatherlink.com 1.10,2013-02-03 21:19:00,
2013-02-03 16:34:00,21.4,16.0,29.93,West,280,3.0,-999.0,80,-99.99,,,0.00,weatherlink.com 1.10,2013-02-03 21:34:00,
2013-02-03 16:49:00,20.9,16.0,29.93,WNW,303,5.0,-999.0,82,-99.99,,,0.00,weatherlink.com 1.10,2013-02-03 21:49:00,
2013-02-03 17:04:00,20.4,16.0,29.93,NW,310,6.0,-999.0,82,-99.99,,,0.00,weatherlink.com 1.10,2013-02-03 22:04:00,
2013-02-03 17:19:00,20.3,16.0,29.94,WNW,301,6.0,-999.0,83,-99.99,,,0.00,weatherlink.com 1.10,2013-02-03 22:19:00,
2013-02-03 17:33:00,20.3,16.0,29.94,NNW,337,4.0,-999.0,84,-99.99,,,0.00,weatherlink.com 1.10,2013-02-03 22:33:00,
2013-02-03 17:49:00,20.2,16.0,29.95,NW,306,3.0,-999.0,83,-99.99,,,0.00,weatherlink.com 1.10,2013-02-03 22:49:00,
2013-02-03 18:04:00,20.0,15.0,29.95,WSW,252,6.0,-999.0,82,-99.99,,,0.00,weatherlink.com 1.10,2013-02-03 23:04:00,
2013-02-03 18:19:00,19.9,15.0,29.96,WSW,251,15.0,-999.0,81,-99.99,,,0.00,weatherlink.com 1.10,2013-02-03 23:19:00,
2013-02-03 18:34:00,19.9,14.0,29.98,West,280,6.0,-999.0,77,-99.99,,,0.00,weatherlink.com 1.10,2013-02-03 23:34:00,
2013-02-03 18:49:00,19.7,14.0,29.98,WNW,294,11.0,-999.0,78,-99.99,,,0.00,weatherlink.com 1.10,2013-02-03 23:49:00,
2013-02-03 19:04:00,19.7,14.0,29.98,NW,317,5.0,-999.0,78,-99.99,,,0.00,weatherlink.com 1.10,2013-02-04 00:04:00,
2013-02-03 19:19:00,19.5,13.0,29.99,WNW,289,5.0,-999.0,77,-99.99,,,0.00,weatherlink.com 1.10,2013-02-04 00:19:00,
2013-02-03 19:34:00,19.3,13.0,30.00,East,97,3.0,-999.0,76,-99.99,,,0.00,weatherlink.com 1.10,2013-02-04 00:34:00,
2013-02-03 19:49:00,18.9,12.0,30.00,NW,325,11.0,-999.0,74,-99.99,,,0.00,weatherlink.com 1.10,2013-02-04 00:49:00,
2013-02-03 20:04:00,18.6,11.0,30.01,WNW,282,5.0,-999.0,71,-99.99,,,0.00,weatherlink.com 1.10,2013-02-04 01:04:00,
2013-02-03 20:19:00,18.1,10.0,30.01,WNW,296,6.0,-999.0,69,-99.99,,,0.00,weatherlink.com 1.10,2013-02-04 01:19:00,
2013-02-03 20:34:00,17.7,9.0,30.02,NNW,342,12.0,-999.0,68,-99.99,,,0.00,weatherlink.com 1.10,2013-02-04 01:34:00,
2013-02-03 20:49:00,17.6,8.0,30.03,WNW,298,10.0,-999.0,67,-99.99,,,0.00,weatherlink.com 1.10,2013-02-04 01:49:00,
2013-02-03 21:04:00,17.4,8.0,30.03,West,276,4.0,-999.0,68,-99.99,,,0.00,weatherlink.com 1.10,2013-02-04 02:04:00,
2013-02-03 21:19:00,17.0,8.0,30.04,WNW,284,4.0,-999.0,69,-99.99,,,0.00,weatherlink.com 1.10,2013-02-04 02:19:00,
2013-02-03 21:33:00,17.0,9.0,30.04,WNW,287,6.0,-999.0,70,-99.99,,,0.00,weatherlink.com 1.10,2013-02-04 02:33:00,
2013-02-03 21:49:00,16.9,9.0,30.05,WNW,284,4.0,-999.0,71,-99.99,,,0.00,weatherlink.com 1.10,2013-02-04 02:49:00,
2013-02-03 22:04:00,16.6,9.0,30.05,NW,305,3.0,-999.0,72,-99.99,,,0.00,weatherlink.com 1.10,2013-02-04 03:04:00,
2013-02-03 22:19:00,16.5,9.0,30.05,WNW,288,1.0,-999.0,72,-99.99,,,0.00,weatherlink.com 1.10,2013-02-04 03:19:00,
2013-02-03 22:34:00,16.2,9.0,30.05,West,279,4.0,-999.0,73,-99.99,,,0.00,weatherlink.com 1.10,2013-02-04 03:34:00,
2013-02-03 22:49:00,16.9,10.0,30.05,West,269,2.0,-999.0,73,-99.99,,,0.00,weatherlink.com 1.10,2013-02-04 03:49:00,
2013-02-03 23:04:00,17.2,10.0,30.05,WSW,257,3.0,-999.0,73,-99.99,,,0.00,weatherlink.com 1.10,2013-02-04 04:04:00,
2013-02-03 23:19:00,17.1,10.0,30.05,WNW,290,2.0,-999.0,73,-99.99,,,0.00,weatherlink.com 1.10,2013-02-04 04:19:00,
2013-02-03 23:34:00,16.7,9.0,30.05,WNW,295,2.0,-999.0,72,-99.99,,,0.00,weatherlink.com 1.10,2013-02-04 04:34:00,
2013-02-03 23:49:00,16.9,9.0,30.05,WNW,300,7.0,-999.0,71,-99.99,,,0.00,weatherlink.com 1.10,2013-02-04 04:49:00,